[Date Prev][Date Next][Thread Prev][Thread Next] - [Date Index][Thread Index][Author Index]
2 Line ISS Keps 4-19
- Subject: [sarex] 2 Line ISS Keps 4-19
- From: "Dave Larsen PhD" <doc@xxxxxxxxxxx>
- Date: Thu, 19 Apr 2007 03:01:18 -0700
ISS
1 25544U 98067A 07107.90220069 +.00017218 +00000-0 +98156-4 0 00390
2 25544 051.6326 055.3988 0015948 079.0030 352.9325 15.78901322481256
----
Sent via sarex@amsat.org. Opinions expressed are those of the author.
Not an AMSAT member? Join now to support the amateur satellite program!
Subscription settings: http://amsat.org/mailman/listinfo/sarex
AMSAT Home